GEFSMA_con_probscp_024.txt.gz
Probability
14 15 16 20 32 52 67 65 48 32 19 9 2 0 0 0 1 1 3 15 38 59 73 81 81 80 80 80 73 55 36 23 14 9 7 6 4 1 0 0 0 0 0
41 40 37 40 53 69 78 77 65 49 35 21 11 7 5 6 6 4 5 16 38 63 82 90 89 85 84 84 80 67 48 31 19 12 8 6 4 2 0 0 0 0 0
77 75 70 70 78 87 90 86 78 67 58 47 35 25 20 19 17 13 12 20 38 64 85 94 94 91 87 84 82 78 67 49 31 18 10 6 4 1 0 0 0 0 0
93 93 91 90 92 95 94 89 81 74 69 64 55 43 33 29 24 20 19 23 37 58 78 90 92 91 86 79 74 73 72 65 48 29 15 8 4 1 0 0 0 0 0
86 91 95 95 95 96 94 89 81 74 68 64 58 47 37 31 25 21 20 24 35 52 68 80 86 85 79 73 67 60 60 64 58 43 25 13 6 2 0 0 0 0 0
73 83 92 95 95 94 91 87 80 71 63 58 52 45 37 30 25 21 19 20 28 39 52 64 72 72 69 66 62 54 47 49 52 47 35 22 11 5 1 0 0 0 0
67 76 86 91 91 88 85 81 76 68 60 55 49 41 31 24 21 20 18 16 18 24 34 44 53 55 56 54 50 45 37 33 37 41 40 30 18 8 3 0 0 0 0
72 75 81 84 82 79 77 75 71 65 58 51 45 35 23 14 12 13 12 9 8 11 18 25 30 34 37 37 31 26 24 22 22 28 34 31 20 11 5 1 0 0 0
74 73 76 80 79 74 71 68 67 63 54 47 41 32 17 7 4 4 4 3 2 3 6 8 12 14 16 17 14 10 11 11 10 13 19 21 17 10 4 1 0 0 0
61 64 71 79 79 74 67 63 62 58 51 43 36 25 14 4 0 0 0 0 0 0 0 1 3 4 4 5 5 3 2 3 2 3 7 10 9 6 3 2 1 0 0
35 45 59 68 69 65 58 54 50 45 39 33 24 16 8 3 0 0 0 0 0 0 0 0 0 1 1 1 1 0 0 0 0 0 2 3 3 3 3 3 2 0 0
13 23 38 46 46 43 40 37 32 27 22 17 12 8 4 1 0 0 0 0 0 0 0 0 0 0 0 0 0 0 0 0 0 0 0 1 1 1 2 1 1 0 0
4 9 17 22 23 21 20 20 16 12 9 7 5 3 1 0 0 0 0 0 0 0 0 0 0 0 0 0 0 0 0 0 0 0 0 0 0 0 0 0 0 0 0
1 2 6 9 9 9 9 9 7 4 3 2 2 1 0 0 0 0 0 0 0 0 0 0 0 0 0 0 0 0 0 0 0 0 0 0 0 0 0 0 0 0 0
0 0 2 4 4 3 4 5 3 1 0 0 0 0 0 0 0 0 0 0 0 0 0 0 0 0 0 0 0 0 0 0 0 0 0 0 0 0 0 0 0 0 0
0 0 1 1 1 1 2 2 1 0 0 0 0 0 0 0 0 0 0 0 0 0 0 0 0 0 0 0 0 0 0 0 0 0 0 0 0 0 0 0 0 0 0
0 0 0 0 0 0 1 1 0 0 0 0 0 0 0 0 0 0 0 0 0 0 0 0 0 0 0 0 0 0 0 0 0 0 0 0 0 0 0 0 0 0 0
0 0 0 0 0 0 0 0 0 0 0 0 0 0 0 0 0 0 0 0 0 0 0 0 0 0 0 0 0 0 0 0 0 0 0 0 0 0 0 0 0 0 0
0 0 0 0 0 0 0 0 0 0 0 0 0 0 0 0 0 0 0 0 0 0 0 0 0 0 0 0 0 0 0 0 0 0 0 0 0 0 0 0 0 0 0
0 0 0 0 0 0 0 0 0 0 0 0 0 0 0 0 0 0 0 0 0 0 0 0 0 0 0 0 0 0 0 0 0 0 0 0 0 0 0 0 0 0 0
0 0 0 0 0 0 0 0 0 0 0 0 0 0 0 0 0 0 0 0 0 0 0 0 0 0 0 0 0 0 0 0 0 0 0 0 0 0 0 0 0 0 0
0 0 0 0 0 0 0 0 0 0 0 0 0 0 0 0 0 0 0 0 0 0 0 0 0 0 0 0 0 0 0 0 0 0 0 0 0 0 0 0 0 0 0
0 0 0 0 0 0 0 0 0 0 0 0 0 0 0 0 0 0 0 0 0 0 0 0 0 0 0 0 0 0 0 0 0 0 0 0 0 0 0 0 0 0 0
0 0 0 0 0 0 0 0 0 0 0 0 0 0 0 0 0 0 0 0 0 0 0 0 0 0 0 0 0 0 0 0 0 0 0 0 0 0 0 0 0 0 0
0 0 0 0 0 0 0 0 0 0 0 0 0 0 0 0 0 0 0 0 0 0 0 0 0 0 0 0 0 0 0 0 0 0 0 0 0 0 0 0 0 0 0
0 0 0 0 0 0 0 0 0 0 0 0 0 0 0 0 0 0 0 0 0 0 0 0 0 0 0 0 0 0 0 0 0 0 0 0 0 0 0 0 0 0 0

GEFSMA_con_probscp_030.txt.gz
Probability
47 39 31 25 19 17 19 20 21 22 23 19 13 9 6 3 2 1 0 0 0 0 0 0 0 0 0 1 1 3 4 3 2 2 2 1 1 1 0 0 0 0 0
49 40 30 25 26 33 40 40 37 36 34 31 22 13 6 4 3 2 1 1 0 0 0 0 0 0 1 2 4 8 11 10 7 5 3 1 1 1 0 0 0 0 0
50 44 36 35 45 60 65 62 57 53 49 44 35 23 13 8 5 3 4 5 5 3 1 1 1 2 3 6 11 21 29 27 19 13 9 5 2 1 0 0 0 0 0
53 51 48 51 65 79 80 74 69 63 58 51 41 30 22 16 10 8 9 12 14 12 6 4 4 6 8 10 18 34 48 48 37 26 20 14 8 2 0 0 0 0 0
61 63 64 67 77 88 87 81 76 70 62 54 42 32 28 25 19 14 12 15 19 17 12 9 10 12 15 19 27 42 55 60 54 43 36 29 19 9 3 0 0 0 0
65 69 73 78 85 91 90 86 81 73 64 56 44 35 31 29 24 18 16 17 18 17 16 17 20 22 23 27 36 46 56 62 62 58 53 44 32 19 7 1 0 0 0
54 58 66 74 82 87 86 84 81 73 64 57 48 38 30 26 21 19 20 20 18 17 17 20 25 30 32 32 36 45 54 61 63 64 63 53 39 25 11 3 0 0 0
29 34 43 53 63 71 74 75 75 69 61 56 51 39 26 18 15 14 16 16 14 14 13 14 19 25 31 35 32 34 46 55 58 62 63 53 38 25 13 4 1 0 0
8 11 18 28 38 47 53 58 63 62 56 52 49 41 27 16 10 6 6 5 5 6 6 7 8 12 21 30 27 22 28 37 45 54 55 44 28 17 10 5 2 0 0
1 1 4 10 18 25 30 37 45 51 50 48 45 40 31 20 11 4 1 0 0 1 2 2 2 4 10 17 16 10 10 15 24 35 39 31 19 11 7 4 2 1 0
0 0 1 3 7 10 13 20 29 36 39 40 39 36 31 24 16 9 3 1 0 0 0 0 0 1 3 6 5 3 1 2 6 14 18 17 12 8 6 4 2 2 2
0 0 0 1 2 3 4 10 18 22 24 26 29 28 26 22 18 11 5 2 1 0 0 0 0 0 0 1 1 1 0 0 0 2 5 6 6 5 4 3 2 3 3
0 0 0 0 1 1 2 5 10 12 12 13 17 19 18 16 13 9 5 2 1 0 0 0 0 0 0 0 0 0 0 0 0 0 1 1 1 1 1 1 1 2 3
0 0 0 0 0 0 1 2 4 6 7 6 8 10 11 9 7 5 3 1 0 0 0 0 0 0 0 0 0 0 0 0 0 0 0 0 0 0 0 0 0 1 1
0 0 0 0 0 0 1 1 1 3 4 3 4 5 6 5 3 1 1 0 0 0 0 0 0 0 0 0 0 0 0 0 0 0 0 0 0 0 0 0 0 0 0
0 0 0 0 0 0 0 0 0 1 2 3 3 3 3 2 0 0 0 0 0 0 0 0 0 0 0 0 0 0 0 0 0 0 0 0 0 0 0 0 0 0 0
0 0 0 0 0 0 0 0 0 0 1 2 1 1 1 0 0 0 0 0 0 0 0 0 0 0 0 0 0 0 0 0 0 0 0 0 0 0 0 0 0 0 0
0 0 0 0 0 0 0 0 0 0 0 0 0 0 0 0 0 0 0 0 0 0 0 0 0 0 0 0 0 0 0 0 0 0 0 0 0 0 0 0 0 0 0
0 0 0 0 0 0 0 0 0 0 0 0 0 0 0 0 0 0 0 0 0 0 0 0 0 0 0 0 0 0 0 0 0 0 0 0 0 0 0 0 0 0 0
0 0 0 0 0 0 0 0 0 0 0 0 0 0 0 0 0 0 0 0 0 0 0 0 0 0 0 0 0 0 0 0 0 0 0 0 0 0 0 0 0 0 0
0 0 0 0 0 0 0 0 0 0 0 0 0 0 0 0 0 0 0 0 0 0 0 0 0 0 0 0 0 0 0 0 0 0 0 0 0 0 0 0 0 0 0
0 0 0 0 0 0 0 0 0 0 0 0 0 0 0 0 0 0 0 0 0 0 0 0 0 0 0 0 0 0 0 0 0 0 0 0 0 0 0 0 0 0 0
0 0 0 0 0 0 0 0 0 0 0 0 0 0 0 0 0 0 0 0 0 0 0 0 0 0 0 0 0 0 0 0 0 0 0 0 0 0 0 0 0 0 0
0 0 0 0 0 0 0 0 0 0 0 0 0 0 0 0 0 0 0 0 0 0 0 0 0 0 0 0 0 0 0 0 0 0 0 0 0 0 0 0 0 0 0
0 0 0 0 0 0 0 0 0 0 0 0 0 0 0 0 0 0 0 0 0 0 0 0 0 0 0 0 0 0 0 0 0 0 0 0 0 0 0 0 0 0 0
0 0 0 0 0 0 0 0 0 0 0 0 0 0 0 0 0 0 0 0 0 0 0 0 0 0 0 0 0 0 0 0 0 0 0 0 0 0 0 0 0 0 0

GEFSMA_con_probscp_036.txt.gz
Probability
16 20 32 38 35 37 48 55 53 48 43 40 36 35 38 42 43 44 45 42 33 19 7 1 1 1 1 1 2 2 3 4 7 8 5 2 1 0 1 1 1 0 0
25 28 33 37 40 46 57 64 66 66 65 63 56 51 51 50 51 51 46 42 36 25 12 6 4 3 3 3 5 6 8 10 15 17 15 9 5 2 1 1 1 0 0
30 34 37 41 50 60 71 78 82 84 85 83 77 70 66 62 60 57 50 46 42 33 24 18 13 10 9 8 10 16 20 24 29 32 31 25 16 9 4 3 2 1 0
25 30 37 46 58 70 80 87 89 89 90 89 84 77 74 71 64 56 48 44 41 36 32 29 26 22 18 15 19 29 38 45 50 51 51 48 38 24 13 6 3 2 1
17 21 29 40 54 69 80 89 91 91 93 92 85 81 77 71 64 55 45 38 36 34 31 32 34 32 26 23 28 40 52 63 71 73 73 72 64 48 28 13 5 2 1
11 15 19 27 39 53 68 80 87 91 95 95 91 85 78 71 67 61 50 40 35 32 28 30 37 37 32 28 32 41 53 68 81 87 89 90 85 72 51 30 14 5 2
6 8 12 16 23 33 46 61 74 82 89 93 93 89 81 74 70 66 57 48 40 34 30 31 36 39 39 34 30 33 43 61 78 89 95 97 94 87 72 51 29 13 7
3 4 6 9 12 18 26 40 55 65 72 80 87 88 82 75 69 64 61 55 47 40 34 30 32 38 42 43 35 28 34 51 70 85 93 95 92 88 81 68 47 25 14
1 1 3 4 6 8 13 22 35 45 53 63 74 82 81 73 68 64 61 59 55 47 37 30 28 31 37 46 44 34 33 43 58 74 85 89 84 79 75 72 62 42 27
0 1 1 1 1 2 4 9 17 27 37 45 57 71 76 74 70 62 55 54 53 48 40 33 30 30 33 42 45 36 30 31 41 57 72 78 75 68 64 67 68 56 42
1 1 0 0 0 0 1 3 8 15 23 30 41 55 67 71 69 59 47 44 45 43 41 40 39 36 35 36 33 25 19 17 21 33 48 59 62 58 55 59 65 58 48
1 1 0 0 0 0 0 2 4 7 14 20 29 41 53 59 61 56 47 40 39 40 44 46 43 37 34 30 20 11 8 6 6 11 20 29 37 39 40 44 48 46 41
1 1 1 0 0 0 0 1 1 2 6 12 19 30 40 45 50 54 50 43 40 42 46 45 38 30 26 25 16 6 2 1 0 1 3 7 11 15 18 21 25 26 26
4 4 3 1 0 0 0 1 1 0 2 4 8 18 29 35 41 50 53 51 47 46 46 40 31 22 19 17 12 5 1 0 0 0 0 0 0 1 3 5 7 10 11
17 13 7 3 0 0 1 2 2 1 0 1 4 10 20 28 35 44 53 56 53 50 46 35 22 14 12 9 6 4 2 0 0 0 0 0 0 0 0 0 1 2 3
37 26 14 7 2 0 1 2 3 2 1 1 3 5 11 18 26 35 43 47 50 50 42 25 11 6 5 3 2 2 1 0 0 0 0 0 0 0 0 0 0 0 1
48 38 23 11 4 1 1 2 3 2 1 1 1 2 3 6 13 22 29 33 39 42 31 14 5 2 1 0 0 0 0 0 0 0 0 0 0 0 0 0 0 0 0
45 40 28 15 6 1 0 1 1 2 2 1 0 0 0 1 5 13 20 24 29 30 20 8 3 2 0 0 0 0 0 0 0 0 0 0 0 0 0 0 0 0 0
34 33 28 19 8 2 0 0 1 2 2 1 0 0 0 0 3 10 14 18 20 18 12 6 3 2 0 0 0 0 0 0 0 0 0 0 0 0 0 0 0 0 0
21 24 25 20 9 2 0 0 0 1 1 0 0 0 0 0 2 7 9 11 12 9 5 4 2 1 0 0 0 0 0 0 0 0 0 0 0 0 0 0 0 0 0
11 15 17 14 7 2 0 0 0 0 0 0 0 0 0 0 1 3 4 5 5 4 3 2 1 0 0 0 0 0 0 0 0 0 0 0 0 0 0 0 0 0 0
4 7 8 6 3 1 0 0 0 0 0 0 0 0 0 0 0 0 1 1 1 1 1 1 0 0 0 0 0 0 0 0 0 0 0 0 0 0 0 0 0 0 0
1 2 3 3 2 0 0 0 0 0 0 0 0 0 0 0 0 0 0 0 0 0 0 0 0 0 0 0 0 0 0 0 0 0 0 0 0 0 0 0 0 0 0
0 1 2 3 2 0 0 0 0 0 0 0 0 0 0 0 0 0 0 0 0 0 0 0 0 0 0 0 0 0 0 0 0 0 0 0 0 0 0 0 0 0 0
0 0 0 1 2 1 0 0 0 0 0 0 0 0 0 0 0 0 0 0 0 0 0 0 0 0 0 0 0 0 0 0 0 0 0 0 0 0 0 0 0 0 0
0 0 0 1 2 1 0 0 0 0 0 0 0 0 0 0 0 0 0 0 0 0 0 0 0 0 0 0 0 0 0 0 0 0 0 0 0 0 0 0 0 0 0

GEFSMA_con_probscp_042.txt.gz
Probability
90 86 88 89 83 78 78 78 80 82 78 68 63 58 58 64 70 76 86 94 98 98 95 91 79 60 41 27 18 14 12 9 8 9 8 7 6 6 4 2 1 0 0
89 86 84 85 81 76 73 72 74 78 76 70 65 58 53 58 69 78 85 91 96 97 96 92 84 70 54 41 31 25 24 22 18 15 14 13 12 11 8 5 3 2 1
78 74 71 72 72 69 66 64 65 69 69 67 64 57 50 53 65 76 81 85 88 91 92 90 85 77 68 60 53 49 48 46 38 30 27 25 22 18 14 11 9 6 4
52 51 49 52 55 55 53 53 55 58 61 61 59 57 54 56 62 69 74 76 77 78 83 84 82 79 76 74 72 71 70 68 59 51 48 45 38 29 22 18 15 11 9
26 27 28 32 36 36 37 40 43 46 51 53 52 52 56 59 61 63 67 69 68 66 68 73 77 78 78 77 76 78 79 79 76 71 68 67 61 49 37 28 23 18 15
11 13 14 17 19 19 22 27 31 34 38 42 42 45 50 55 58 62 67 70 66 61 58 63 71 76 75 69 68 72 77 81 85 84 82 82 80 72 58 44 34 26 22
6 6 5 6 7 8 11 15 19 22 25 28 34 36 38 44 53 62 71 75 71 64 58 60 68 73 72 63 56 60 68 75 82 85 88 88 88 83 75 63 50 37 28
8 6 4 2 1 2 4 6 10 13 15 20 28 32 30 34 44 56 69 77 76 71 65 60 64 69 70 64 55 50 54 61 70 79 86 88 87 85 83 78 67 48 33
18 14 9 5 2 1 1 2 5 7 10 13 21 29 29 28 32 41 52 63 71 75 70 61 58 61 63 63 57 48 45 49 57 69 79 81 80 79 79 80 76 60 45
36 29 21 15 10 6 2 1 2 4 6 7 13 21 25 24 24 25 28 37 53 67 70 65 58 55 56 59 55 46 42 41 44 54 62 65 65 66 69 72 75 69 59
60 51 41 35 27 18 9 5 4 4 5 6 8 11 14 17 18 15 11 16 28 46 62 68 65 59 57 54 46 36 32 29 27 30 36 41 44 49 55 61 65 67 66
75 70 65 58 47 33 21 15 12 8 7 10 10 7 7 10 12 10 7 6 11 27 49 65 68 65 59 49 34 22 17 13 10 10 13 18 24 30 38 44 48 54 57
83 82 80 74 62 48 35 28 23 16 11 12 10 7 5 7 8 8 6 3 5 16 35 52 60 61 55 42 24 11 7 4 3 3 3 5 9 14 19 22 27 33 36
83 84 84 79 73 60 47 39 32 22 16 13 8 6 6 6 6 7 6 4 3 9 21 35 46 50 46 33 16 7 4 2 1 1 1 1 2 4 5 7 9 13 15
72 75 78 78 75 68 58 49 37 24 19 16 10 6 6 7 7 7 7 5 3 5 12 24 34 38 34 22 10 5 4 1 0 0 0 0 0 0 0 1 2 2 3
54 58 64 69 70 68 61 53 41 25 18 16 12 7 6 8 7 6 6 6 6 6 10 17 22 23 19 12 6 4 3 1 0 0 0 0 0 0 0 0 0 0 0
31 36 46 54 58 58 57 51 39 23 13 11 9 6 5 6 6 6 6 7 7 7 7 10 12 11 9 6 4 2 1 0 0 0 0 0 0 0 0 0 0 0 0
10 15 25 35 40 44 49 48 36 21 11 8 6 4 4 3 3 5 6 6 5 4 3 4 4 4 5 5 3 2 1 0 0 0 0 0 0 0 0 0 0 0 0
1 4 10 18 24 30 36 38 33 22 14 9 5 3 2 2 2 4 6 5 3 1 1 1 0 1 3 3 2 1 0 0 0 0 0 0 0 0 0 0 0 0 0
0 0 3 7 11 16 19 23 24 20 15 12 7 2 1 2 2 3 4 4 3 1 1 0 0 1 2 2 1 0 0 0 0 0 0 0 0 0 0 0 0 0 0
0 0 0 1 3 5 7 9 12 13 12 10 6 2 1 1 1 1 3 4 3 1 0 0 0 1 1 1 0 0 0 0 0 0 0 0 0 0 0 0 0 0 0
0 0 0 0 0 1 1 2 4 5 6 5 3 1 0 0 0 0 1 3 2 1 0 0 1 1 0 0 0 0 0 0 0 0 0 0 0 0 0 0 0 0 0
0 0 0 0 0 0 0 0 0 1 2 2 1 0 0 0 0 0 0 1 1 0 0 0 0 0 0 0 0 0 0 0 0 0 0 0 0 0 0 0 0 0 0
0 0 0 0 0 0 0 0 0 0 0 1 1 0 0 0 0 0 0 0 0 0 0 0 0 0 0 0 0 0 0 0 0 0 0 0 0 0 0 0 0 0 0
0 0 0 0 0 0 0 0 0 0 0 0 0 0 0 0 0 0 0 0 0 0 0 0 0 0 0 0 0 0 0 0 0 0 0 0 0 0 0 0 0 0 0
0 0 0 0 0 0 0 0 0 0 0 0 0 0 0 0 0 0 0 0 0 0 0 0 0 0 0 0 0 0 0 0 0 0 0 0 0 0 0 0 0 0 0

GEFSMA_con_probscp_048.txt.gz
Probability
7 7 5 4 5 7 10 11 10 8 5 3 1 1 3 5 11 15 14 12 12 14 24 41 54 62 61 53 43 30 16 9 5 2 0 0 0 0 0 1 0 0 0
10 9 8 6 5 5 6 6 6 4 3 2 1 1 3 6 10 14 16 15 14 15 21 33 46 53 54 48 41 32 23 16 10 4 1 0 0 0 0 1 0 0 0
16 14 10 6 4 2 2 2 2 2 1 1 1 1 2 4 7 10 12 14 15 14 17 24 32 40 44 41 35 30 26 23 17 8 3 1 0 0 0 0 0 0 0
20 15 9 5 3 2 2 2 2 2 2 1 0 0 0 1 3 4 5 8 11 12 14 18 22 28 33 33 28 23 20 22 22 14 7 3 0 0 0 0 0 0 0
16 11 6 4 2 1 1 1 1 2 2 1 0 0 0 0 1 1 1 2 6 9 10 12 14 18 22 24 22 19 16 18 22 18 11 6 2 1 1 0 0 0 0
11 7 3 2 1 1 0 0 0 1 1 1 0 0 0 0 0 0 0 1 3 4 6 7 10 13 15 17 18 17 16 16 18 16 11 9 8 6 4 2 1 0 0
6 4 1 1 0 0 0 0 0 0 0 0 0 0 0 0 0 0 1 2 3 3 5 7 10 12 15 16 14 14 14 13 13 13 10 11 13 14 12 8 4 2 1
4 2 0 0 0 0 0 0 0 0 0 0 0 0 0 0 0 0 1 2 3 4 5 8 11 14 16 16 14 11 11 11 11 11 9 11 16 19 20 15 10 5 2
3 2 0 0 0 0 0 0 0 0 0 0 0 0 0 0 0 0 0 1 1 1 3 6 10 13 15 15 14 12 11 11 10 10 9 9 13 18 20 19 15 8 4
2 2 1 0 0 0 0 0 0 0 0 0 0 0 0 0 0 0 0 0 0 0 1 3 6 8 10 12 12 10 9 8 8 9 8 7 11 14 16 19 19 15 13
3 3 3 1 1 1 0 0 0 0 0 0 0 0 0 0 0 0 0 0 0 0 0 1 2 4 5 6 6 5 5 3 3 4 4 5 8 11 13 15 19 22 23
5 6 5 4 3 2 1 0 0 0 0 0 0 0 0 0 0 0 0 0 0 0 0 0 1 2 2 2 2 2 2 1 0 1 1 2 4 7 9 11 16 21 23
6 6 6 5 5 4 3 1 1 1 0 0 0 0 0 0 0 0 0 0 0 0 0 0 0 1 1 2 2 2 1 0 0 0 0 0 1 3 4 6 10 13 14
4 4 4 3 3 5 5 3 2 2 1 1 0 0 0 0 0 0 0 0 0 0 0 0 0 0 1 1 1 1 1 0 0 0 0 0 0 1 1 2 3 5 5
1 1 1 1 1 2 4 3 2 2 2 1 0 0 0 0 0 0 0 0 0 0 0 0 0 0 0 0 0 0 0 0 0 0 0 0 0 0 0 0 0 1 1
0 0 0 0 0 0 1 2 1 1 1 1 0 0 0 0 0 0 0 0 0 0 0 0 0 0 0 0 0 0 0 0 0 0 0 0 0 0 0 0 0 0 0
0 0 0 0 0 0 0 1 1 1 0 0 0 0 0 1 0 0 0 0 0 0 0 0 0 0 0 0 0 0 0 0 0 0 0 0 0 0 0 0 0 0 0
0 0 0 0 0 0 0 0 1 1 0 0 0 0 0 0 0 0 0 0 0 0 0 0 0 0 0 0 0 0 0 0 0 0 0 0 0 0 0 0 0 0 0
0 0 0 0 0 0 0 0 0 0 0 0 0 0 0 0 0 0 0 0 0 0 0 0 0 0 0 0 0 0 0 0 0 0 0 0 0 0 0 0 0 0 0
0 0 0 0 0 0 0 0 0 0 0 0 0 0 0 0 0 0 0 0 0 0 0 0 0 0 0 0 0 0 0 0 0 0 0 0 0 0 0 0 0 0 0
0 0 0 0 0 0 0 0 0 0 0 0 0 0 0 0 0 0 0 0 0 0 0 0 0 0 0 0 0 0 0 0 0 0 0 0 0 0 0 0 0 0 0
0 0 0 0 0 0 0 0 0 0 0 0 0 0 0 0 0 0 0 0 0 0 0 0 0 0 0 0 0 0 0 0 0 0 0 0 0 0 0 0 0 0 0
0 0 0 0 0 0 0 0 0 0 0 0 0 0 0 0 0 0 0 0 0 0 0 0 0 0 0 0 0 0 0 0 0 0 0 0 0 0 0 0 0 0 0
0 0 0 0 0 0 0 0 0 0 0 0 0 0 0 0 0 0 0 0 0 0 0 0 0 0 0 0 0 0 0 0 0 0 0 0 0 0 0 0 0 0 0
0 0 0 0 0 0 0 0 0 0 0 0 0 0 0 0 0 0 0 0 0 0 0 0 0 0 0 0 0 0 0 0 0 0 0 0 0 0 0 0 0 0 0
0 0 0 0 0 0 0 0 0 0 0 0 0 0 0 0 0 0 0 0 0 0 0 0 0 0 0 0 0 0 0 0 0 0 0 0 0 0 0 0 0 0 0

GEFSMA_con_probscp_054.txt.gz
Probability
7 4 1 0 0 0 0 1 0 0 1 2 3 4 4 2 1 3 3 1 1 1 1 2 5 8 11 12 14 19 24 24 16 8 4 3 1 0 0 0 0 0 0
7 5 2 1 0 0 0 1 0 0 0 1 1 2 2 1 1 2 3 2 2 2 3 5 6 7 10 11 12 17 25 28 23 14 7 3 1 1 0 0 0 0 0
8 7 4 2 1 0 0 1 1 1 1 1 0 0 0 0 0 1 1 2 2 2 3 5 6 7 8 10 11 15 23 28 26 19 11 6 3 2 1 0 0 0 0
10 9 6 3 1 1 1 1 2 2 2 1 0 0 0 0 0 0 0 2 2 1 1 3 4 5 7 10 12 13 17 23 23 20 15 10 6 4 2 1 0 0 0
13 10 7 4 3 2 2 2 3 2 1 1 0 0 0 0 0 0 0 1 1 1 0 0 1 3 6 9 10 10 13 19 24 21 18 15 10 6 4 2 1 0 0
13 10 7 4 3 3 3 2 2 1 0 0 0 0 0 0 0 0 0 0 0 0 0 0 1 2 4 6 8 10 15 21 24 22 19 17 14 10 6 4 2 1 0
7 7 5 3 2 2 2 1 0 0 0 0 0 0 0 0 0 0 0 0 0 0 0 0 1 2 3 5 7 12 18 21 23 23 21 19 17 13 9 6 4 1 0
2 3 2 2 2 1 1 0 0 0 0 0 0 0 0 0 0 0 0 0 0 0 0 0 1 1 1 3 4 9 14 19 22 26 27 24 18 13 10 7 5 2 1
0 0 1 2 1 0 0 0 0 0 0 0 0 0 0 0 0 0 0 0 0 0 0 0 0 0 0 1 1 3 7 13 18 25 30 27 19 11 8 7 5 3 2
0 0 0 1 1 0 0 0 0 0 0 0 0 0 0 0 0 0 0 0 0 0 0 0 0 0 0 0 0 0 2 5 12 20 26 28 21 13 9 8 9 10 10
0 0 0 0 0 0 0 0 0 0 0 0 0 0 0 0 0 0 0 0 0 0 0 0 0 0 0 0 0 0 0 1 5 12 18 21 20 14 11 12 16 21 24
0 0 0 0 0 0 0 0 0 0 0 0 0 0 0 0 0 0 0 0 0 0 0 0 0 0 0 0 0 0 0 0 2 5 8 11 11 9 9 12 18 25 28
0 0 0 0 0 0 0 0 0 0 0 0 0 0 0 0 0 0 0 0 0 0 0 0 0 0 0 0 0 0 0 0 0 1 2 2 3 3 5 8 12 16 20
0 0 0 0 0 0 0 0 0 0 0 0 0 0 0 0 0 0 0 0 0 0 0 0 0 0 0 0 0 0 0 0 0 0 0 0 0 1 1 2 3 5 8
0 0 0 0 0 0 0 0 0 0 0 0 0 1 0 0 0 0 0 0 0 0 0 0 0 0 0 0 0 0 0 0 0 0 0 0 0 0 0 0 0 0 1
0 0 0 0 0 0 0 0 0 0 0 0 1 1 0 0 0 0 0 0 0 0 0 0 0 0 0 0 0 0 0 0 0 0 0 0 0 0 0 0 0 0 0
0 0 0 0 0 0 0 0 0 0 0 0 1 0 0 0 0 0 0 0 0 0 0 0 0 0 0 0 0 0 0 0 0 0 0 0 0 0 0 0 0 0 0
0 0 0 0 0 0 0 0 0 0 0 0 0 0 0 0 0 0 0 0 0 0 0 0 0 0 0 0 0 0 0 0 0 0 0 0 0 0 0 0 0 0 0
0 0 0 0 0 0 0 0 0 0 0 0 0 0 0 0 0 0 0 0 0 0 0 0 0 0 0 0 0 0 0 0 0 0 0 0 0 0 0 0 0 0 0
0 0 0 0 0 0 0 0 0 0 0 0 0 0 0 0 0 0 0 0 0 0 0 0 0 0 0 0 0 0 0 0 0 0 0 0 0 0 0 0 0 0 0
0 0 0 0 0 0 0 0 0 0 0 0 0 0 0 0 0 0 0 0 0 0 0 0 0 0 0 0 0 0 0 0 0 0 0 0 0 0 0 0 0 0 0
0 0 0 0 0 0 0 0 0 0 0 0 0 0 0 0 0 0 0 0 0 0 0 0 0 0 0 0 0 0 0 0 0 0 0 0 0 0 0 0 0 0 0
0 0 0 0 0 0 0 0 0 0 0 0 0 0 0 0 0 0 0 0 0 0 0 0 0 0 0 0 0 0 0 0 0 0 0 0 0 0 0 0 0 0 0
0 0 0 0 0 0 0 0 0 0 0 0 0 0 0 0 0 0 0 0 0 0 0 0 0 0 0 0 0 0 0 0 0 0 0 0 0 0 0 0 0 0 0
0 0 0 0 0 0 0 0 0 0 0 0 0 0 0 0 0 0 0 0 0 0 0 0 0 0 0 0 0 0 0 0 0 0 0 0 0 0 0 0 0 0 0
0 0 0 0 0 0 0 0 0 0 0 0 0 0 0 0 0 0 0 0 0 0 0 0 0 0 0 0 0 0 0 0 0 0 0 0 0 0 0 0 0 0 0